FENGYUN 1C DEB, 29828

Orbit data source: Space-Track

FENGYUN 1C DEB, 29828 is space debris in SSO originally from a launch on Mon, 10 May 1999 UTC launched from the Taiyaun Space Center, China (TSC). Fengyun 1C debris stems from the Chinese weather satellite Fengyun-1C, which was intentionally destroyed by a Chinese anti-satellite missile in 2007. This event dramatically increased the amount of space debris, with thousands of trackable fragments posing hazards to satellites and human spaceflight. The Fengyun 1C debris cloud has become a focal point in discussions about space sustainability and the need for international regulations to prevent the creation of new debris.

Loading next visibility...
Identifier
29828, 1999-025DW
Orbit
SSO
Country
Flag of CNCN / PRC
Related business
Manufacturer
Unknown
Mission
Spacecraft
Bus & Motor
Unknown
Mass
Unknown
Launch date (UTC)
1999-05-10 (27 years ago)
Launch vehicle
Unknown
Launch site
Taiyaun Space Center, China (TSC)
Object type
Payload
Rocket body
Debris
Shape & HBR
Unknown shape, 0.1 m
Radar Cross Section
Medium (>0.1 m² and <1 m²)

Expand to show TLE details & history
Last TLE update: 20 hours ago

TLE from 20 hours ago
0 FENGYUN 1C DEB
1 29828U 99025DW  26253.81100250  .00000356  00000-0  22658-3 0  9999
2 29828  98.7473 296.4148 0062549 108.9237 304.2809 14.08771763  5600
Epoch: 2026-09-10T19:27Z
TLE epoch observation values (Epoch: 2026-09-10T19:27:50.615Z)
Latitude
51.84674°
Longitude
3.37617°
Altitude
846.599 km
Speed
7.447 km/s
True Right ascension
19h 00m 43s
True Declination
51° 40' 54"
Sunlit
Object was in daylight at epoch
Visualization orbit readout
Latitude
Unknown
Longitude
Unknown
Altitude
Unknown
Speed
Unknown
Apparent Right ascension
Unknown
Apparent Declination
Unknown
Sunlit
N/A
Visualization observer readout
Local Sidereal Time
07:34:13
Azimuth
Unknown
Elevation
Unknown
Doppler factor
Unknown
Orbital elements
Apogee altitude
906.032 km
Perigee altitude
815.475 km
Semi-major axis
7,238.89 km
Eccentricity
0.00625
Inclination
98.7473°
RAAN
296.4148°
Arg. of periapsis
108.9237°
True anomaly
303.68604°
Mean anomaly
304.2809°
Eccentric anomaly
303.98373°
Mean motion
3.52399 °/min
Orbital period
102.16 mins
BSTAR
0.00022658
Loading maneuver chart data...
Computing Atmospheric mass density...

Documentation

Showing up to 5 results
|